sat.trackr.live / text

‹ back to catalog

DCS-1

NORAD 67263 · 2025-313R

PAYLOAD ACTIVE UNKNOWN

§ Identity

Operator
Country
CIS
Launch date
2025-12-28
Launch site
VOSTO
Launch vehicle
Mass (kg)
RCS (m²)

External: N2YO · Heavens-Above · Gunter

§ Orbital elements

Epoch: 2026-09-20T10:39:22.288608Z

Period
94.44 min
Inclination
97.3873°
Eccentricity
0.0014612
Mean motion
15.24822268 rev/d
Perigee alt
481.3 km
Apogee alt
501.4 km
Semi-major
6,869.5 km
B*
2.3627e-4
RAAN
336.8514°
Arg perigee
34.1679°
Mean anomaly
326.0496°
Rev number
4,046

§ Raw data

DCS-11 67263U 25313R   26263.44400797  .00005809  00000+0  23627-3 0  99962 67263  97.3873 336.8514 0014612  34.1679 326.0496 15.24822268 40461

JSON: /api/v1/satellites/67263 · /tle

For live sub-satellite position, see the globe view (requires WebGL).

§ Visibility from observer

Set your observer location to see the next 7 days of passes ≥ 10°. The values pass through the URL so the page stays shareable.

No JS? Fill the form by hand. The geolocation button needs JavaScript.